CW4778 Auckland NZ current weather conditions

sailwx.info

Wind from 243 at 0 knots gusting 1

Air temperature 9.4° C
Dewpoint 9.0° C

Last reported at 2015-Jun-30 13:48 UTC.
Time now 2015-Jun-30 14:30 UTC

Location: S 36°52' E 174°44'.
View on Google Maps.

See reports from other nearby stations

  
Tides and Currents Weather Stations Pressure Air Temp Water Temp Dewpoint Dewpoint Depression Visibility Wind Speed Wind Dir Waves Ship Positions
date/time (UTC)wind fromknots sea level pressurealtimeterstation pressurevisibilityair tempwater tempwave heightnotes
2015-Jun-30 13:48 243 0 gusting 1 9.4
2015-Jun-30 13:38 247 9.4
2015-Jun-30 13:28 244 9.4
2015-Jun-30 13:18 245 9.4
2015-Jun-30 13:08 245 9.4
2015-Jun-30 12:58 245 0 gusting 4 10.0
2015-Jun-30 12:48 245 10.0
2015-Jun-30 12:38 262 9.4
2015-Jun-30 12:28 263 9.4
2015-Jun-30 12:18 310 9.4
2015-Jun-30 12:08 261 9.4
2015-Jun-30 11:48 260 10.0
2015-Jun-30 11:38 263 10.0
2015-Jun-30 11:28 267 10.0
2015-Jun-30 11:18 266 9.4
2015-Jun-30 10:58 264 10.0
2015-Jun-30 10:48 266 10.0
2015-Jun-30 10:38 274 10.0
2015-Jun-30 10:28 274 10.6
2015-Jun-30 10:18 263 10.0
2015-Jun-30 10:08 267 10.0
2015-Jun-30 09:58 263 10.6
2015-Jun-30 09:48 304 0 gusting 1 10.6
2015-Jun-30 09:28 263 11.1
2015-Jun-30 09:18 254 0 gusting 2 11.1
2015-Jun-30 08:58 260 11.1
2015-Jun-30 08:48 217 2 gusting 7 11.1
2015-Jun-30 08:28 234 2 gusting 6 11.1
2015-Jun-30 08:08 309 4 gusting 8 11.1
2015-Jun-30 07:58 249 2 gusting 6 11.1
2015-Jun-30 07:38 227 4 gusting 7 11.1
2015-Jun-30 07:28 258 2 gusting 6 10.6
2015-Jun-30 07:18 230 3 gusting 6 10.6
2015-Jun-30 07:08 261 1 gusting 5 10.6
2015-Jun-30 06:58 265 10.0
2015-Jun-30 06:48 264 10.6
2015-Jun-30 06:38 266 10.6
2015-Jun-30 06:28 313 10.6
2015-Jun-30 06:18 262 11.1
2015-Jun-30 06:08 267 0 gusting 1 11.1
2015-Jun-30 05:58 262 0 gusting 2 11.7
2015-Jun-30 05:48 259 0 gusting 5 11.7
2015-Jun-30 05:38 252 0 gusting 6 12.2
2015-Jun-30 05:28 276 3 gusting 8 12.8
2015-Jun-30 05:18 12.8
2015-Jun-30 05:08 251 5 gusting 8 12.8
2015-Jun-30 04:58 253 1 gusting 10 12.8
2015-Jun-30 04:48 251 4 gusting 10 12.8
2015-Jun-30 04:28 292 4 gusting 8 13.3
2015-Jun-30 04:18 267 4 gusting 13 13.9
2015-Jun-30 04:08 261 6 gusting 10 13.9
2015-Jun-30 03:58 326 4 gusting 11 13.9
2015-Jun-30 03:48 264 4 gusting 8 13.9
2015-Jun-30 03:28 195 3 gusting 6 14.4
2015-Jun-30 03:18 222 2 gusting 7 13.9
2015-Jun-30 03:08 217 6 gusting 13 14.4
2015-Jun-30 02:58 221 5 gusting 11 14.4
2015-Jun-30 02:48 185 6 gusting 14 15.0
2015-Jun-30 02:38 266 6 gusting 13 14.4
2015-Jun-30 02:28 302 6 gusting 12 14.4
2015-Jun-30 02:08 224 6 gusting 10 13.9
2015-Jun-30 01:58 235 5 gusting 18 14.4
2015-Jun-30 01:48 250 3 gusting 12 15.6
2015-Jun-30 01:38 232 5 gusting 14 15.6
2015-Jun-30 01:18 258 7 gusting 14 16.1
2015-Jun-30 01:08 252 5 gusting 10 16.1
2015-Jun-30 00:58 235 5 gusting 11 16.1
2015-Jun-30 00:48 253 6 gusting 11 15.0
2015-Jun-30 00:38 260 1 gusting 12 14.4
2015-Jun-30 00:18 201 6 gusting 12 16.7
2015-Jun-29 23:38 217 5 gusting 8 17.2
2015-Jun-29 23:28 240 4 gusting 12 15.6
2015-Jun-29 23:08 202 4 gusting 12 16.1
2015-Jun-29 22:58 218 6 gusting 14 16.7
2015-Jun-29 22:48 210 6 gusting 13 16.1
2015-Jun-29 22:38 225 2 gusting 6 16.7
2015-Jun-29 22:28 235 5 gusting 8 16.7
2015-Jun-29 22:18 251 4 gusting 8 16.1
2015-Jun-29 22:08 225 3 gusting 11 15.6
2015-Jun-29 21:58 214 5 gusting 8 14.4
2015-Jun-29 21:48 258 5 gusting 12 15.0
2015-Jun-29 21:38 256 2 gusting 8 14.4
2015-Jun-29 21:28 243 3 gusting 11 12.8
2015-Jun-29 21:18 226 5 gusting 10 12.8
2015-Jun-29 21:08 206 4 gusting 6 12.8
2015-Jun-29 20:58 248 2 gusting 13 12.2
2015-Jun-29 20:48 319 2 gusting 6 12.2
2015-Jun-29 20:38 262 1 gusting 6 11.7
2015-Jun-29 20:28 271 2 gusting 6 11.7
2015-Jun-29 20:18 252 3 gusting 6 11.1
2015-Jun-29 19:58 258 11.1
2015-Jun-29 19:48 249 10.6
2015-Jun-29 19:38 251 10.6
2015-Jun-29 19:28 249 11.1
2015-Jun-29 19:18 244 0 gusting 6 11.1
2015-Jun-29 19:08 242 4 gusting 6 11.1
2015-Jun-29 18:58 259 4 gusting 6 11.7
2015-Jun-29 18:48 247 1 gusting 6 11.1
2015-Jun-29 18:38 208 2 gusting 8 11.7
2015-Jun-29 18:28 263 3 gusting 7 11.7
2015-Jun-29 18:18 266 3 gusting 7 11.7
2015-Jun-29 17:58 244 9 gusting 15 11.7
2015-Jun-29 17:48 242 4 gusting 13 12.2
2015-Jun-29 17:38 204 6 gusting 10 12.2
2015-Jun-29 17:28 248 4 gusting 10 12.2
2015-Jun-29 17:08 260 2 gusting 12 12.2
2015-Jun-29 16:38 291 4 gusting 8 11.7
2015-Jun-29 16:28 283 3 gusting 7 11.7
2015-Jun-29 16:18 285 2 gusting 6 11.7
2015-Jun-29 15:58 242 2 gusting 11 11.7
2015-Jun-29 15:48 263 2 gusting 6 11.7
2015-Jun-29 15:38 280 1 gusting 6 11.7
2015-Jun-29 15:28 263 4 gusting 6 12.2
2015-Jun-29 15:18 274 0 gusting 5 12.2
2015-Jun-29 15:08 265 2 gusting 6 12.2
2015-Jun-29 14:58 247 4 gusting 10 12.2
2015-Jun-29 14:48 335 1 gusting 6 12.2
2015-Jun-29 14:38 266 4 gusting 6 11.7
2015-Jun-29 14:28 267 1 gusting 6 11.7
2015-Jun-29 14:18 264 1 gusting 6 11.7
2015-Jun-29 14:08 239 11.7
2015-Jun-29 13:28 257 2 gusting 7 11.7
2015-Jun-29 12:58 238 4 gusting 12 11.7
2015-Jun-29 12:48 237 4 gusting 8 11.7
2015-Jun-29 12:28 259 1 gusting 6 11.7
2015-Jun-29 12:18 256 4 gusting 7 11.7
2015-Jun-29 12:08 252 3 gusting 11 11.7
2015-Jun-29 11:58 230 3 gusting 6 11.7
2015-Jun-29 11:48 239 2 gusting 7 11.7
2015-Jun-29 11:28 232 2 gusting 12 11.7
2015-Jun-29 11:18 309 5 gusting 13 11.7
2015-Jun-29 11:08 248 5 gusting 14 11.7
2015-Jun-29 10:58 256 8 gusting 18 11.7
2015-Jun-29 10:48 247 6 gusting 14 12.2
2015-Jun-29 10:38 265 4 gusting 6 11.7
2015-Jun-29 10:18 261 2 gusting 6 11.7
2015-Jun-29 10:08 262 4 gusting 7 11.1
2015-Jun-29 09:48 233 2 gusting 8 11.7
2015-Jun-29 09:38 287 2 gusting 10 11.1
2015-Jun-29 09:28 241 5 gusting 11 11.1
2015-Jun-29 09:18 251 4 gusting 12 11.1
2015-Jun-29 09:08 237 6 gusting 14 11.1
2015-Jun-29 08:58 231 6 gusting 13 11.7
2015-Jun-29 08:48 251 6 gusting 18 12.2
2015-Jun-29 08:38 259 9 gusting 19 12.2
2015-Jun-29 08:28 238 7 gusting 15 11.7
2015-Jun-29 08:18 256 6 gusting 15 12.2
2015-Jun-29 08:08 246 6 gusting 19 12.8
2015-Jun-29 07:58 318 8 gusting 19 12.8
2015-Jun-29 07:48 265 4 gusting 12 12.8
2015-Jun-29 07:38 258 5 gusting 13 13.3
2015-Jun-29 07:28 259 7 gusting 19 12.8
2015-Jun-29 07:18 249 6 gusting 18 12.8
2015-Jun-29 07:08 244 6 gusting 18 12.8
2015-Jun-29 06:48 234 6 gusting 14 12.8
2015-Jun-29 06:38 236 8 gusting 20 12.8
2015-Jun-29 06:28 225 8 gusting 18 12.8
2015-Jun-29 06:18 227 7 gusting 15 13.3
2015-Jun-29 06:08 252 7 gusting 17 13.3
2015-Jun-29 05:48 232 8 gusting 19 13.3
2015-Jun-29 05:38 243 9 gusting 17 12.8
2015-Jun-29 05:28 257 6 gusting 13 13.3
2015-Jun-29 05:08 266 6 gusting 18 13.3
2015-Jun-29 04:58 256 11 gusting 21 13.3
2015-Jun-29 04:38 246 8 gusting 20 13.3
2015-Jun-29 04:28 231 8 gusting 21 13.9
2015-Jun-29 04:18 258 7 gusting 19 13.9
2015-Jun-29 03:48 224 9 gusting 19 14.4
2015-Jun-29 03:38 253 10 gusting 19 14.4
2015-Jun-29 03:18 317 9 gusting 19 15.0
2015-Jun-29 02:58 220 12 gusting 22 15.0
2015-Jun-29 02:38 233 7 gusting 22 15.0
2015-Jun-29 02:18 227 10 gusting 20 15.6
2015-Jun-29 02:08 288 11 gusting 19 15.6
2015-Jun-29 01:38 214 7 gusting 19 15.0
2015-Jun-29 01:28 237 8 gusting 20 15.6
2015-Jun-29 01:08 210 11 gusting 21 15.6
2015-Jun-29 00:58 194 11 gusting 19 15.6
2015-Jun-29 00:38 218 5 gusting 19 15.0
2015-Jun-29 00:28 240 10 gusting 19 16.1
2015-Jun-29 00:18 243 5 gusting 17 16.7
2015-Jun-28 23:58 239 9 gusting 19 15.0
2015-Jun-28 23:48 261 12 gusting 19 15.0
2015-Jun-28 23:18 244 8 gusting 18 16.7
2015-Jun-28 23:08 254 7 gusting 19 15.6
2015-Jun-28 22:58 238 8 gusting 15 15.6
2015-Jun-28 22:48 226 7 gusting 15 16.7
2015-Jun-28 22:28 250 10 gusting 19 15.0
2015-Jun-28 22:18 245 7 gusting 14 16.1
2015-Jun-28 22:08 237 6 gusting 18 16.7
2015-Jun-28 21:58 244 7 gusting 13 16.1
2015-Jun-28 21:48 237 5 gusting 15 16.1
2015-Jun-28 21:38 215 4 gusting 13 14.4
2015-Jun-28 21:28 263 6 gusting 13 15.0
2015-Jun-28 21:08 244 3 gusting 11 13.9
2015-Jun-28 20:48 260 4 gusting 13 12.8
2015-Jun-28 20:38 302 1 gusting 6 12.2
2015-Jun-28 20:28 262 1 gusting 6 12.2
2015-Jun-28 20:18 284 3 gusting 6 11.7
2015-Jun-28 20:08 282 5 gusting 7 11.7
2015-Jun-28 19:58 271 3 gusting 6 11.7
2015-Jun-28 19:48 254 2 gusting 7 11.1
2015-Jun-28 19:38 276 1 gusting 6 11.1
2015-Jun-28 19:28 258 2 gusting 7 11.7
2015-Jun-28 19:18 277 4 gusting 6 11.7
2015-Jun-28 18:58 269 3 gusting 10 12.2
2015-Jun-28 18:48 246 6 gusting 11 11.7
2015-Jun-28 18:38 250 2 gusting 6 11.7
2015-Jun-28 18:28 268 1 gusting 6 11.7
2015-Jun-28 18:18 289 2 gusting 6 11.1
2015-Jun-28 18:08 286 1 gusting 6 11.1
2015-Jun-28 17:58 261 0 gusting 5 10.6
2015-Jun-28 17:48 272 1 gusting 6 10.6
2015-Jun-28 17:28 260 1 gusting 5 10.0
2015-Jun-28 17:18 271 1 gusting 4 10.0
2015-Jun-28 17:08 253 1 gusting 5 10.0
2015-Jun-28 16:58 251 2 gusting 6 10.0
2015-Jun-28 16:48 253 2 gusting 6 10.0
2015-Jun-28 16:38 258 2 gusting 6 10.6
2015-Jun-28 16:28 279 1 gusting 5 10.6
2015-Jun-28 16:18 315 3 gusting 6 10.0
2015-Jun-28 16:08 265 2 gusting 6 10.0
2015-Jun-28 15:48 306 0 gusting 6 8.9
2015-Jun-28 15:38 255 8.9
2015-Jun-28 15:28 253 8.3
2015-Jun-28 15:18 253 8.3
2015-Jun-28 15:08 246 0 gusting 2 8.3
2015-Jun-28 14:58 243 8.3
2015-Jun-28 14:48 249 8.9
2015-Jun-28 14:38 243 8.9
2015-Jun-28 14:28 241 0 gusting 4 9.4
2015-Jun-28 14:18 220 1 gusting 6 10.0
2015-Jun-28 14:08 252 3 gusting 6 10.0